Home > Time Zones > World Clock > Weather > U.S.A. > Erie > Past weeks

Flag for U.S.A. Weather past 2 weeks in Erie, Pennsylvania, U.S.A.

Now
80 °F

Sunny.


Feels Like: 83 °F
Forecast: 68 / 80 °F
Wind: 12 mph from Northwest

Location: Erie International Airport

Current Time: Aug 31, 2015 at 4:11:32 PM

Latest Report: Aug 31, 2015 at 2:51 PM


Visibility: 9 mi

Pressure: 30.06 "Hg

Humidity: 67%

Dew point: 68 °F

Location of ErieLocation

Historic Weather in Erie — Graph

°F

Erie temperature yesterday

Maximum temperature yesterday: 79 °F (at 5:51 PM)
Minimum temperature yesterday: 67 °F (at 3:51 AM)
Average temperature yesterday: 73 °F

Past Weeks' High & Low Weather Summary

 TemperatureHumidityPressure
High91 °F (Aug 19, 3:51 PM)90% (Aug 26, 5:01 AM)30.22 "Hg (Aug 26, 5:01 AM)
Low54 °F (Aug 28, 4:51 AM)38% (Aug 19, 3:51 PM)29.73 "Hg (Aug 20, 3:51 AM)
Average70 °F68%30.02 "Hg
* Reported Aug 16 2:51 PM — Aug 31 2:51 PM, Erie, Weather by CustomWeather, © 2015

Note: Actual official high and low records may vary slightly from our data, if they occured in-between our weather recording intervals... More about our weather records

Advertising

Erie weather history for previous 24 hours

 ConditionsComfort  
Time TempWeatherWind HumidityBarometerVisibility
2:51 PM
Mon, Aug 31
80 °FSunny.12 mph67%30.06 "Hg9 mi
1:51 PM81 °FSunny.8 mph62%30.07 "Hg10 mi
12:51 PM79 °FSunny.10 mph69%30.08 "Hg9 mi
11:51 AM77 °FPassing clouds.14 mph71%30.09 "Hg9 mi
10:51 AM78 °FSunny.5 mph66%30.08 "Hg10 mi
9:51 AM76 °FPassing clouds.8 mph69%30.07 "Hg10 mi
8:51 AM74 °FPartly sunny.7 mph74%30.07 "Hg10 mi
7:51 AM71 °FSunny.6 mph78%30.06 "Hg10 mi
6:51 AM69 °FClear.5 mph81%30.04 "Hg10 mi
5:56 AM70 °FClear.7 mph81%30.04 "Hg10 mi
4:51 AM71 °FClear.5 mph78%30.03 "Hg10 mi
3:51 AM72 °FPassing clouds.8 mph76%30.02 "Hg10 mi
2:51 AM72 °FClear.8 mph78%30.02 "Hg10 mi
1:51 AM72 °FClear.7 mph78%30.02 "Hg10 mi
12:51 AM71 °FClear.6 mph81%30.03 "Hg10 mi
11:51 PM
Sun, Aug 30
72 °FPassing clouds.9 mph81%30.03 "Hg10 mi
10:51 PM71 °FPassing clouds.6 mph81%30.03 "Hg10 mi
9:51 PM72 °FClear.3 mph81%30.04 "Hg10 mi
8:51 PM73 °FPartly sunny.3 mph81%30.04 "Hg10 mi
7:51 PM77 °FPartly sunny.No wind69%30.03 "Hg10 mi
6:51 PM78 °FPartly sunny.No wind64%30.02 "Hg10 mi
5:51 PM79 °FSunny.No wind62%30.03 "Hg10 mi
4:51 PM78 °FSunny.5 mph62%30.04 "Hg10 mi
Weather by CustomWeather, © 2015

See weather overviewHow to use our weather pages